Location: Unspecified
(47.5487°N, 19.0270°E)
Time: 07:57:08
(UTC+01:00)

ISS - Visible Passes

Search period start: 27 January 2022 00:00
Search period end: 06 February 2022 00:00
Orbit: 413 x 422 km, 51.6° (Epoch: 27 January)

Date Brightness Start Highest point End Pass type
(mag) Time Alt. Az. Time Alt. Az. Time Alt. Az.
27 Jan -3.0 17:29:50 10° W 17:33:02 41° N 17:35:35 14° ENE visible
27 Jan -1.6 19:06:56 10° WNW 19:08:30 24° NW 19:08:30 24° NW visible
28 Jan -3.2 18:18:49 10° WNW 18:22:01 42° N 18:22:26 40° NNE visible
29 Jan -3.0 17:30:39 10° WNW 17:33:50 39° N 17:36:23 14° ENE visible
29 Jan -1.9 19:07:31 10° WNW 19:09:19 29° WNW 19:09:19 29° WNW visible
30 Jan -3.7 18:19:24 10° WNW 18:22:43 61° NNE 18:23:18 50° ENE visible
31 Jan -3.4 17:31:17 10° WNW 17:34:32 48° NNE 17:37:21 13° E visible
31 Jan -2.1 19:08:05 10° WNW 19:10:18 34° W 19:10:18 34° W visible
01 Feb -3.7 18:19:54 10° WNW 18:23:14 74° SSW 18:24:27 36° SE visible
02 Feb -3.8 17:31:45 10° WNW 17:35:05 79° NNE 17:38:26 10° ESE visible
02 Feb -1.6 19:08:56 10° W 19:11:33 21° SW 19:11:39 21° SW visible
03 Feb -2.2 18:20:29 10° WNW 18:23:32 33° SW 18:26:05 13° SSE visible
04 Feb -2.9 17:32:11 10° WNW 17:35:25 50° SSW 17:38:40 10° SE visible
05 Feb -0.8 18:21:39 10° W 18:23:33 15° SW 18:25:28 10° S visible
